Weather History for Del Bajio, Mexico

Change the Weather History Date:

Monday, August 26, 2013

  Actual Average Record
Temperature  
Mean Temperature 66 °F -  
Max Temperature 75 °F 79 °F 87 °F (2004)
Min Temperature 57 °F 58 °F 51 °F (2014)
Cooling Degree Days 1    
Growing Degree Days 16 (Base 50)    
Moisture  
Dew Point 56 °F    
Average Humidity 68    
Maximum Humidity 88    
Minimum Humidity 50    
Precipitation  
Precipitation 0.00 in - - ()
Sea Level Pressure  
Sea Level Pressure 30.08 in    
Wind  
Wind Speed 4 mph ()    
Max Wind Speed 15 mph    
Max Gust Speed -    
Visibility 9.2 miles    
Events      
Averages and records for this station are not official NWS values.
T = Trace of Precipitation, MM = Missing Value Source: Averaged Metar Reports

Daily Weather History Graph

Daily Weather History Graph

Search for Another Location

Airport:

Trip Planner

Search our weather history database for the weather conditions in past years. The results will help you decide how hot, cold, wet, or windy it might be!

Date:

Astronomy

Aug. 26, 2013 Rise Set
Actual Time 7:28 AM CDT 8:06 PM CDT
Civil Twilight 7:05 AM CDT 8:29 PM CDT
Nautical Twilight 6:38 AM CDT 8:55 PM CDT
Astronomical Twilight 6:11 AM CDT 9:22 PM CDT
Moon No Moon Rise 12:40 PM CDT (8/26)
Length of Visible Light 13h 23m
Length of Day
12h 38m
Waning Gibbous, 66% of the Moon is Illuminated
Aug 26
Waning Gibbous
Aug 28
Last Quarter
Sep 5
New
Sep 12
First Quarter
Sep 19
Full

Hourly Weather History & Observations

Time (CDT) Temp. Dew Point Humidity Pressure Visibility Wind Dir Wind Speed Gust Speed Precip Events Conditions
12:50 AM 62.6 °F 53.6 °F 72% 29.85 in 8.0 mi Calm Calm - N/A   Scattered Clouds
1:48 AM 62.6 °F 55.4 °F 77% 30.22 in 8.0 mi Calm Calm - N/A   Scattered Clouds
2:48 AM 60.8 °F 55.4 °F 82% 30.21 in 8.0 mi Calm Calm - N/A   Scattered Clouds
4:50 AM 59.0 °F 55.4 °F 88% 30.21 in 8.0 mi Calm Calm - N/A   Scattered Clouds
5:50 AM 57.2 °F 53.6 °F 88% 30.19 in 8.0 mi Calm Calm - N/A   Scattered Clouds
7:45 AM 60.8 °F 55.4 °F 82% 30.20 in 10.0 mi Calm Calm - N/A   Mostly Cloudy
8:50 AM 64.4 °F 55.4 °F 73% 30.21 in 10.0 mi ENE 5.8 mph - N/A   Mostly Cloudy
9:49 AM 68.0 °F 55.4 °F 64% 29.88 in 10.0 mi ENE 6.9 mph - N/A   Mostly Cloudy
10:45 AM 71.6 °F 55.4 °F 57% 30.23 in 10.0 mi Calm Calm - N/A   Overcast
11:42 AM 71.6 °F 55.4 °F 57% 30.24 in 10.0 mi NE 6.9 mph - N/A   Overcast
12:45 PM 73.4 °F 57.2 °F 57% 29.82 in 10.0 mi NE 6.9 mph - N/A   Overcast
1:45 PM 71.6 °F 57.2 °F 60% 30.20 in 10.0 mi NNE 11.5 mph - N/A   Overcast
2:55 PM 75.2 °F 55.4 °F 50% 30.18 in 10.0 mi East 13.8 mph - N/A   Overcast
3:42 PM 73.4 °F 57.2 °F 57% 29.76 in 10.0 mi NE 10.4 mph - N/A   Overcast
4:43 PM 73.4 °F 57.2 °F 57% 30.12 in 10.0 mi NNE 10.4 mph - N/A   Overcast
5:44 PM 73.4 °F 57.2 °F 57% 30.12 in 10.0 mi NE 15.0 mph - N/A   Overcast
6:44 PM 71.6 °F 57.2 °F 60% 29.74 in 10.0 mi NNE 8.1 mph - N/A   Overcast
7:52 PM 68.0 °F 55.4 °F 64% 30.12 in 10.0 mi ENE 6.9 mph - N/A   Overcast
8:42 PM 66.2 °F 55.4 °F 68% 30.12 in 8.0 mi NE 6.9 mph - N/A   Overcast
9:48 PM 66.2 °F 60.8 °F 83% 29.79 in 8.0 mi NE 5.8 mph - N/A   Overcast
10:47 PM 64.4 °F 57.2 °F 77% 30.18 in 8.0 mi NNE 3.5 mph - N/A   Mostly Cloudy
11:43 PM 64.4 °F 57.2 °F 77% 30.18 in 8.0 mi East 6.9 mph - N/A   Mostly Cloudy